Content
SEND FEEDBACK

United States of America Flag

AQUASHICOLA, PENNSYLVANIA


Home > North America > United States > Pennsylvania
Elevation: 164 meters     Latitude: 40 48N     Longitude: 075 37W

WEATHER
 
SELECT A DAY
Number of Records: 218,397;   Date Range: 1/1/95 - 3/22/16
 
SHARE

PRINT THIS DATA

[ ← Previous Day ]
WEATHER ALMANAC - 1 FEBRUARY, 2013
[ Next Day → ]
[ °F ]   °C
Weather ElementAverageHighLow
Temperature-3.6 °C-1.1 °C (1:51 pm)-6.7 °C (11:51 pm)
Dewpoint-13.4 °C-10 °C (3:51 am)-16.7 °C (3:51 pm)
Humidity48.3 %65 % (3:51 am)32 % (3:51 pm)
Barometer1015.9 hPa1025.1 hPa (11:51 pm)1009.5 hPa (1:51 am)
Wind Speed20.9 km/h37 km/h (12:51 pm)
Wind Gust51.8 km/h (11:51 am)
Weather ElementAverage
Visibility16.1 km
Wind DirectionWNW (276.1 °)

Weather ElementTotal
Precipitation---
Heating Degree Days22.3 (Base 18.3)
Averaged from 23 records on 1 February, 2013
WEATHER CONDITIONS BREAKOUT
WIND DIRECTION BREAKOUT
WEATHER BY HOUR - 1 FEBRUARY, 2013
[ °F ]   °C
Local TimeTemperatureDewpointHumidityBarometerVisibilityWind DirectionWind SpeedGust SpeedPrecipitationEventsConditions
1:51 AM-2.8 °C-10.6 °C56 %1009.5 hPa16.1 kmWSW (240°)14.8 km/hMostly Cloudy
2:51 AM-4.4 °C-10.6 °C62 %1009.5 hPa16.1 kmSW (230°)13 km/hClear
3:51 AM-4.4 °C-10 °C65 %1009.8 hPa16.1 kmSW (230°)16.7 km/hClear
4:51 AM-3.3 °C-10 °C60 %1010.2 hPa16.1 kmWSW (240°)16.7 km/hMostly Cloudy
5:51 AM-3.3 °C-10.6 °C58 %1010.8 hPa16.1 kmWest (260°)13 km/hOvercast
6:51 AM-3.3 °C-10 °C60 %1011.2 hPa16.1 kmWest (260°)7.4 km/hOvercast
7:51 AM-2.8 °C-10.6 °C56 %1011.5 hPa16.1 kmWNW (290°)16.7 km/hOvercast
8:51 AM-2.8 °C-12.8 °C47 %1012.9 hPa16.1 kmNW (310°)27.8 km/h42.6 km/hOvercast
9:51 AM-3.3 °C-13.3 °C47 %1013.5 hPa16.1 kmWNW (300°)24.1 km/h44.4 km/hPartly Cloudy
10:51 AM-2.8 °C-14.4 °C41 %1013.9 hPa16.1 kmNW (310°)25.9 km/h38.9 km/hMostly Cloudy
11:51 AM-2.2 °C-15 °C38 %1014.2 hPa16.1 kmWNW (290°)33.3 km/h51.8 km/hMostly Cloudy
12:51 PM-1.7 °C-15 °C36 %1014.6 hPa16.1 kmWNW (300°)37 km/h51.8 km/hMostly Cloudy
1:51 PM-1.1 °C-15 °C35 %1015.2 hPa16.1 kmWNW (290°)22.2 km/h50.1 km/hMostly Cloudy
2:51 PM-1.7 °C-15.6 °C35 %1015.9 hPa16.1 kmWNW (300°)35.2 km/h50.1 km/hMostly Cloudy
3:51 PM-1.7 °C-16.7 °C32 %1017.3 hPa16.1 kmWNW (290°)27.8 km/h40.7 km/hPartly Cloudy
4:51 PM-3.3 °C-13.9 °C44 %1018.3 hPa16.1 kmWest (280°)27.8 km/h46.3 km/hScattered Clouds
5:51 PM-3.9 °C-13.9 °C46 %1020 hPa16.1 kmWest (280°)14.8 km/h29.6 km/hClear
6:51 PM-4.4 °C-14.4 °C46 %1021.7 hPa16.1 kmWest (280°)18.5 km/h42.6 km/hPartly Cloudy
7:51 PM-5 °C-14.4 °C48 %1022.4 hPa16.1 kmWest (270°)16.7 km/h33.3 km/hClear
8:51 PM-6 °C-15 °C50 %1022.7 hPa16.1 kmWest (280°)18.5 km/h29.6 km/hClear
9:51 PM-5.6 °C-15 °C48 %1024.4 hPa16.1 kmWest (270°)18.5 km/h35.2 km/hClear
10:51 PM-6.1 °C-15 °C50 %1024.7 hPa16.1 kmWest (270°)16.7 km/hClear
11:51 PM-6.7 °C-15.6 °C50 %1025.1 hPa16.1 kmWest (280°)18.5 km/hClear
Hourly data recorded from KABE, located 0 kilometers away from Aquashicola, Pennsylvania




STORIES FROM OUR PARTNERS